GW4575 Weather Reports


Display with metric or nautical units.
time (UTC)temp
F
wind
direction
speed
MPH
gust
MPH
rain 1hr
in
rain 24hr
in
rain mn
in
humidity
%
barometer
mb
20260506023956 35 255 2.0 3.0 0.00 0.01 0.01 62 1012.3
20260506023453 35 281 4.0 6.0 0.00 0.01 0.01 62 1012.4
20260506022950 35 277 2.0 7.0 0.00 0.01 0.01 62 1012.2
20260506022448 35 278 1.0 2.0 0.00 0.01 0.01 63 1012.3
20260506021945 35 280 3.0 7.0 0.00 0.01 0.01 63 1012.3
20260506021443 35 302 2.0 3.0 0.00 0.01 0.01 63 1012.1
20260506020940 35 287 2.0 3.0 0.00 0.01 0.01 64 1012.0
20260506020437 35 297 3.0 4.0 0.00 0.01 0.01 63 1012.2
20260506015934 35 307 1.0 4.0 0.00 0.01 0.01 63 1012.2
20260506015432 35 275 1.0 4.0 0.00 0.01 0.01 62 1012.0
20260506014928 35 310 3.0 3.0 0.00 0.01 0.01 64 1012.1
20260506014426 35 269 0.0 1.0 0.00 0.01 0.01 64 1012.0
20260506013921 35 297 4.0 4.0 0.00 0.01 0.01 63 1012.0
20260506013420 35 278 1.0 3.0 0.00 0.01 0.01 63 1011.8
20260506012916 35 263 3.0 6.0 0.00 0.01 0.01 63 1011.8
20260506012413 35 284 4.0 7.0 0.00 0.01 0.01 62 1011.9
20260506011910 35 262 2.0 4.0 0.00 0.01 0.01 63 1011.8
20260506011407 35 259 2.0 4.0 0.00 0.01 0.01 64 1011.6
20260506010903 35 266 3.0 4.0 0.00 0.01 0.01 64 1011.7
20260506010402 35 292 1.0 4.0 0.00 0.01 0.01 64 1011.7
20260506005858 35 289 5.0 7.0 0.00 0.01 0.01 62 1011.8
20260506005356 35 257 2.0 6.0 0.00 0.01 0.01 64 1011.7
20260506004851 35 272 1.0 4.0 0.00 0.01 0.01 64 1011.7
20260506004349 35 251 2.0 4.0 0.00 0.01 0.01 64 1011.4
20260506003845 35 293 2.0 6.0 0.00 0.01 0.01 65 1011.7
20260506003341 35 280 1.0 7.0 0.00 0.01 0.01 65 1011.8
20260506002838 35 272 2.0 7.0 0.00 0.01 0.01 64 1011.8
20260506002334 35 263 1.0 3.0 0.00 0.01 0.01 66 1011.8
20260506001830 35 283 4.0 7.0 0.00 0.01 0.01 64 1011.6
20260506001327 35 264 3.0 4.0 0.00 0.01 0.01 65 1011.7
20260506000824 35 315 3.0 8.0 0.00 0.01 0.01 65 1011.7
20260506000323 35 266 3.0 7.0 0.00 0.01 0.01 64 1011.6
20260505235818 35 314 6.0 8.0 0.00 0.01 0.01 64 1011.4
20260505235316 35 272 6.0 8.0 0.00 0.01 0.01 65 1011.3
20260505234813 35 317 5.0 8.0 0.00 0.01 0.01 66 1011.6
20260505234311 35 276 2.0 8.0 0.00 0.01 0.01 68 1011.7
20260505233807 35 301 4.0 7.0 0.00 0.01 0.01 68 1011.4
20260505233305 35 285 6.0 9.0 0.00 0.01 0.01 69 1011.4
20260505232802 35 296 5.0 7.0 0.00 0.01 0.01 66 1011.7
20260505232300 35 240 4.0 6.0 0.00 0.01 0.01 68 1011.4
20260505231756 35 271 6.0 9.0 0.00 0.01 0.01 68 1011.4
20260505231255 35 282 7.0 14.0 0.00 0.01 0.01 68 1011.3
20260505230753 35 261 4.0 14.0 0.00 0.01 0.01 67 1011.4
20260505230249 35 274 8.0 11.0 0.00 0.01 0.01 67 1011.4
20260505225746 35 277 7.0 9.0 0.00 0.01 0.01 68 1011.6
20260505225243 35 283 11.0 15.0 0.00 0.01 0.01 66 1011.6
20260505224738 35 266 4.0 11.0 0.00 0.01 0.01 65 1011.3
20260505224236 35 254 4.0 11.0 0.00 0.01 0.01 66 1011.3
20260505223733 35 270 2.0 6.0 0.00 0.01 0.01 65 1011.2
20260505223229 35 252 4.0 10.0 0.00 0.01 0.01 65 1011.3
20260505222725 35 323 4.0 10.0 0.00 0.01 0.01 66 1011.1
20260505222221 35 300 7.0 11.0 0.00 0.01 0.01 66 1011.2
20260505221719 35 297 2.0 10.0 0.00 0.01 0.01 66 1011.1
20260505221215 35 301 5.0 13.0 0.00 0.01 0.01 66 1011.1
20260505220712 35 297 5.0 13.0 0.00 0.01 0.01 66 1011.1
20260505220210 35 294 6.0 21.0 0.00 0.01 0.01 65 1011.2
20260505215708 35 323 9.0 16.0 0.00 0.01 0.01 66 1011.1
20260505215205 35 265 6.0 8.0 0.00 0.01 0.01 67 1011.0
20260505214702 35 279 4.0 9.0 0.00 0.01 0.01 66 1011.1
20260505214200 35 281 5.0 17.0 0.00 0.01 0.01 64 1011.1
20260505213657 35 297 4.0 15.0 0.00 0.01 0.01 64 1011.0
20260505213154 35 328 4.0 8.0 0.00 0.01 0.01 64 1011.0
20260505212650 35 237 8.0 9.0 0.00 0.01 0.01 63 1010.9
20260505212148 35 334 6.0 13.0 0.00 0.01 0.01 64 1010.9
20260505211645 36 293 5.0 10.0 0.00 0.01 0.01 65 1010.8
20260505211142 36 290 6.0 14.0 0.00 0.01 0.01 63 1010.8
20260505210638 36 322 13.0 18.0 0.00 0.01 0.01 62 1011.0
20260505210135 36 293 9.0 13.0 0.00 0.01 0.01 62 1011.0
20260505205632 36 282 5.0 15.0 0.00 0.01 0.01 63 1010.6
20260505205131 36 244 9.0 19.0 0.00 0.01 0.01 64 1010.8
20260505204627 36 285 10.0 13.0 0.00 0.01 0.01 62 1010.6
20260505204125 37 295 12.0 17.0 0.00 0.01 0.01 63 1010.8
20260505203621 37 272 6.0 17.0 0.00 0.01 0.01 65 1010.7
20260505203119 37 265 9.0 13.0 0.00 0.01 0.01 63 1010.6
20260505202614 37 284 4.0 11.0 0.00 0.01 0.01 64 1010.5
20260505202111 36 290 7.0 14.0 0.00 0.01 0.01 64 1010.7
20260505201607 36 324 7.0 15.0 0.00 0.01 0.01 67 1010.5
20260505201105 36 276 8.0 16.0 0.00 0.01 0.01 64 1010.7
20260505200557 35 313 9.0 11.0 0.00 0.01 0.01 66 1010.5
20260505200054 36 336 5.0 9.0 0.00 0.01 0.01 67 1010.4
20260505195550 36 0 9.0 16.0 0.00 0.01 0.01 66 1010.4
20260505195048 36 271 7.0 17.0 0.00 0.01 0.01 67 1010.3
20260505194545 36 278 4.0 13.0 0.00 0.01 0.01 66 1010.2
20260505194040 36 275 4.0 11.0 0.00 0.01 0.01 66 1010.1
20260505193537 36 272 8.0 15.0 0.00 0.01 0.01 66 1010.0
20260505193035 37 333 7.0 13.0 0.00 0.01 0.01 64 1010.0
20260505192533 37 261 6.0 9.0 0.00 0.01 0.01 68 1009.9
20260505192030 36 301 4.0 13.0 0.00 0.01 0.01 68 1009.9
20260505191528 37 304 9.0 13.0 0.00 0.01 0.01 64 1009.9
20260505191026 36 295 7.0 13.0 0.00 0.01 0.01 66 1009.9
20260505190520 38 235 6.0 11.0 0.00 0.01 0.01 66 1009.8
20260505190016 38 258 5.0 14.0 0.00 0.01 0.01 65 1010.0
20260505185508 37 278 7.0 16.0 0.00 0.01 0.01 67 1009.7
20260505185004 37 293 5.0 15.0 0.00 0.01 0.01 69 1009.7
20260505184501 37 292 6.0 10.0 0.00 0.01 0.01 67 1009.8
20260505183957 37 282 6.0 9.0 0.00 0.01 0.01 69 1009.7
20260505183454 36 305 3.0 9.0 0.00 0.01 0.01 70 1009.5
20260505182951 35 313 4.0 13.0 0.00 0.01 0.01 71 1009.4
20260505182448 36 289 8.0 15.0 0.00 0.01 0.01 67 1009.5
20260505181944 37 250 7.0 18.0 0.00 0.01 0.01 67 1009.5
20260505181441 37 298 9.0 14.0 0.00 0.01 0.01 68 1009.4
20260505180938 37 271 4.0 13.0 0.00 0.01 0.01 70 1009.3
20260505180434 35 288 6.0 14.0 0.00 0.01 0.01 70 1009.3
20260505175931 35 266 7.0 11.0 0.00 0.01 0.01 70 1009.4
20260505175427 35 291 11.0 14.0 0.00 0.01 0.01 71 1009.6
20260505174923 34 294 7.0 16.0 0.00 0.01 0.01 72 1009.4
20260505174422 34 305 5.0 11.0 0.00 0.01 0.01 73 1009.5
20260505173917 34 264 4.0 11.0 0.00 0.01 0.01 74 1009.3
20260505173414 34 302 5.0 11.0 0.00 0.01 0.01 75 1009.4
20260505172911 35 285 10.0 13.0 0.00 0.01 0.01 74 1009.3
20260505172409 34 288 7.0 10.0 0.00 0.01 0.01 73 1009.1
20260505171908 33 313 9.0 17.0 0.07 0.01 0.01 73 1009.2
20260505171405 33 274 10.0 17.0 0.07 0.01 0.01 73 1009.3
20260505170856 33 300 7.0 13.0 0.00 0.00 0.00 74 1009.1
20260505170353 33 256 10.0 18.0 0.00 0.00 0.00 75 1009.0
20260505165848 33 276 9.0 11.0 0.00 0.00 0.00 76 1008.9
20260505165344 34 277 4.0 11.0 0.00 0.00 0.00 76 1009.0
20260505164840 34 286 7.0 11.0 0.00 0.00 0.00 77 1008.8
20260505164337 34 253 11.0 16.0 0.00 0.00 0.00 77 1008.9
20260505163835 34 257 2.0 9.0 0.00 0.00 0.00 80 1008.8
20260505163333 34 281 10.0 15.0 0.00 0.00 0.00 78 1008.8
20260505162831 34 324 6.0 11.0 0.00 0.00 0.00 81 1008.8
20260505162327 33 324 5.0 15.0 0.00 0.00 0.00 80 1008.6
20260505161825 33 312 7.0 11.0 0.00 0.00 0.00 80 1008.6
20260505161322 34 257 8.0 14.0 0.00 0.00 0.00 80 1008.5
20260505160819 34 256 6.0 13.0 0.00 0.00 0.00 83 1008.5
20260505160317 34 295 8.0 10.0 0.00 0.00 0.00 82 1008.6
20260505153255 33 270 6.0 9.0 0.00 0.00 0.00 88 1008.2
20260505152753 33 256 2.0 9.0 0.00 0.00 0.00 90 1008.2
20260505152249 33 299 5.0 9.0 0.00 0.00 0.00 90 1008.2
20260505151743 33 336 4.0 8.0 0.00 0.00 0.00 90 1007.9
20260505151241 34 313 8.0 11.0 0.00 0.00 0.00 88 1007.7
20260505150738 34 332 6.0 11.0 0.00 0.00 0.00 87 1007.7
20260505150235 33 307 11.0 15.0 0.00 0.00 0.00 87 1007.6
20260505140200 34 262 5.0 8.0 0.00 0.00 0.00 93 1006.7
20260505130124 37 260 3.0 8.0 0.00 0.00 0.00 78 1006.2
20260505124613 36 285 2.0 6.0 0.00 0.00 0.00 83 1005.9
20260505124110 36 315 3.0 9.0 0.00 0.00 0.00 83 1005.9
20260505123606 36 291 5.0 9.0 0.00 0.00 0.00 84 1005.8
20260505123103 36 269 3.0 6.0 0.00 0.00 0.00 85 1005.9
20260505122559 36 286 1.0 6.0 0.00 0.00 0.00 86 1005.7
20260505122056 35 295 3.0 7.0 0.00 0.00 0.00 86 1005.7
20260505121552 35 274 4.0 6.0 0.00 0.00 0.00 86 1005.7
20260505121049 35 320 4.0 6.0 0.00 0.00 0.00 86 1005.5
20260505120540 35 264 2.0 7.0 0.00 0.00 0.00 86 1005.5
20260505120036 35 294 2.0 6.0 0.00 0.00 0.00 87 1005.4
20260505115530 35 277 2.0 6.0 0.00 0.00 0.00 87 1005.4
20260505115028 35 291 2.0 6.0 0.00 0.00 0.00 89 1005.4
20260505114525 35 285 2.0 8.0 0.00 0.00 0.00 89 1005.4
20260505114021 35 270 6.0 7.0 0.00 0.00 0.00 90 1005.1
20260505113517 35 238 6.0 10.0 0.00 0.00 0.00 90 1005.3
20260505113014 35 289 0.0 6.0 0.00 0.00 0.00 91 1005.2
20260505112511 35 273 4.0 7.0 0.00 0.00 0.00 91 1005.3
20260505112009 35 289 3.0 4.0 0.00 0.00 0.00 91 1005.1
20260505111507 35 277 2.0 2.0 0.00 0.00 0.00 92 1004.9
20260505111004 35 288 4.0 7.0 0.00 0.00 0.00 92 1004.8
20260505110500 35 273 3.0 7.0 0.00 0.00 0.00 92 1004.8
20260505101932 34 274 4.0 6.0 0.00 0.00 0.00 94 1004.4
20260505101426 34 266 1.0 4.0 0.00 0.00 0.00 94 1004.2
20260505100922 33 294 2.0 4.0 0.00 0.00 0.00 94 1004.1
20260505100419 33 296 2.0 3.0 0.00 0.00 0.00 94 1004.0
20260505095915 34 271 0.0 1.0 0.00 0.00 0.00 93 1004.0
20260505095412 34 280 1.0 3.0 0.00 0.00 0.00 92 1004.1
20260505094908 34 285 1.0 3.0 0.00 0.00 0.00 91 1004.1
20260505094406 34 288 1.0 3.0 0.00 0.00 0.00 92 1004.0
20260505093901 34 273 2.0 2.0 0.00 0.00 0.00 91 1004.0
20260505093358 35 287 2.0 2.0 0.00 0.00 0.00 91 1003.9
20260505092856 35 265 1.0 3.0 0.00 0.00 0.00 91 1004.0
20260505092354 35 256 3.0 3.0 0.00 0.00 0.00 91 1004.0
20260505091850 34 276 1.0 6.0 0.00 0.00 0.00 92 1004.0
20260505091348 34 290 2.0 3.0 0.00 0.00 0.00 92 1004.1
20260505090846 34 313 0.0 2.0 0.00 0.00 0.00 92 1004.0
20260505090344 34 275 2.0 3.0 0.00 0.00 0.00 92 1003.8
20260505085841 35 285 3.0 3.0 0.00 0.00 0.00 91 1003.8
20260505085339 35 291 2.0 4.0 0.00 0.00 0.00 91 1004.0
20260505084837 35 291 1.0 1.0 0.00 0.00 0.00 90 1003.9
20260505084335 35 291 2.0 4.0 0.00 0.00 0.00 90 1003.9
20260505083832 35 250 1.0 2.0 0.00 0.00 0.00 90 1003.8
20260505083329 35 263 1.0 4.0 0.00 0.00 0.00 90 1003.9
20260505082826 35 290 2.0 4.0 0.00 0.00 0.00 89 1003.9
20260505082322 35 286 2.0 3.0 0.00 0.00 0.00 89 1004.1
20260505081819 35 266 1.0 4.0 0.00 0.00 0.00 88 1003.7
20260505081315 34 279 2.0 3.0 0.00 0.00 0.00 88 1003.8
20260505080812 34 278 2.0 3.0 0.00 0.00 0.00 88 1003.8
20260505080308 34 292 3.0 4.0 0.00 0.00 0.00 88 1003.8
20260505075803 34 306 2.0 4.0 0.00 0.00 0.00 88 1003.6
20260505075301 34 289 1.0 4.0 0.00 0.00 0.00 88 1003.8
20260505074758 34 290 4.0 6.0 0.00 0.00 0.00 88 1003.7
20260505074255 34 278 1.0 6.0 0.00 0.00 0.00 88 1003.6
20260505073753 34 269 3.0 3.0 0.00 0.00 0.00 88 1003.8
20260505073250 34 276 3.0 3.0 0.00 0.00 0.00 89 1003.7
20260505072747 34 269 1.0 3.0 0.00 0.00 0.00 88 1003.9
20260505072243 34 295 5.0 7.0 0.00 0.00 0.00 88 1003.8
20260505071739 34 263 1.0 3.0 0.00 0.00 0.00 87 1003.6
20260505071236 35 281 2.0 3.0 0.00 0.00 0.00 86 1003.7
20260505070733 35 291 1.0 7.0 0.00 0.00 0.00 86 1003.6
20260505070230 35 300 4.0 4.0 0.00 0.00 0.00 85 1003.8
20260505065725 35 295 4.0 4.0 0.00 0.00 0.00 85 1003.8
20260505065222 35 308 4.0 7.0 0.00 0.00 0.00 84 1003.7
20260505064719 35 309 4.0 6.0 0.00 0.00 0.00 83 1003.6
20260505064217 35 268 2.0 7.0 0.00 0.00 0.00 82 1003.5
20260505063714 35 297 2.0 6.0 0.00 0.00 0.00 83 1003.5
20260505063210 35 288 4.0 8.0 0.00 0.00 0.00 82 1003.4
20260505062707 36 289 2.0 10.0 0.00 0.00 0.00 82 1003.4
20260505062205 36 297 3.0 8.0 0.00 0.00 0.00 82 1003.3
20260505061701 36 298 6.0 10.0 0.00 0.00 0.00 81 1003.2
20260505061200 36 262 2.0 13.0 0.00 0.00 0.00 82 1003.2
20260505060657 36 314 4.0 7.0 0.00 0.00 0.00 84 1003.2
20260505060153 36 248 1.0 6.0 0.00 0.00 0.00 85 1003.2
20260505055648 36 223 2.0 3.0 0.00 0.00 0.00 87 1003.2
20260505055145 36 299 5.0 7.0 0.00 0.00 0.00 86 1003.0
20260505054643 36 298 3.0 9.0 0.00 0.00 0.00 87 1003.2
20260505054141 36 266 2.0 7.0 0.00 0.00 0.00 87 1003.1
20260505053638 36 263 2.0 11.0 0.00 0.00 0.00 85 1002.9
20260505053134 36 325 4.0 6.0 0.00 0.00 0.00 85 1002.9
20260505052632 37 335 4.0 9.0 0.00 0.00 0.00 86 1002.8
20260505052129 37 275 4.0 8.0 0.00 0.00 0.00 87 1002.8
20260505051625 37 322 4.0 13.0 0.00 0.00 0.00 87 1002.6
20260505051124 37 325 2.0 7.0 0.00 0.00 0.00 87 1002.5
20260505050621 37 281 5.0 10.0 0.00 0.00 0.00 85 1002.7
20260505050119 37 249 4.0 14.0 0.00 0.00 0.00 85 1002.5
20260505041549 38 257 9.0 11.0 0.00 0.00 0.00 83 1002.3
20260505041046 38 260 5.0 7.0 0.00 0.00 0.00 83 1002.2
20260505040544 38 276 3.0 9.0 0.00 0.00 0.00 82 1002.3
20260505040041 38 275 4.0 8.0 0.00 0.00 0.00 82 1002.1
20260505035537 38 279 4.0 7.0 0.00 0.08 0.08 82 1002.2
20260505035034 38 286 6.0 9.0 0.00 0.08 0.08 82 1002.4
20260505034530 38 286 3.0 8.0 0.00 0.08 0.08 82 1002.2
20260505034027 38 272 4.0 13.0 0.00 0.08 0.08 82 1002.1
20260505033524 38 331 4.0 7.0 0.00 0.08 0.08 83 1002.1
20260505033022 38 310 4.0 6.0 0.00 0.08 0.08 82 1002.1
20260505032520 38 293 4.0 6.0 0.00 0.08 0.08 82 1002.1
20260505032016 39 266 3.0 6.0 0.00 0.08 0.08 81 1001.9
20260505031513 39 314 6.0 10.0 0.00 0.08 0.08 80 1002.0
20260505031009 39 268 1.0 8.0 0.00 0.08 0.08 79 1002.1
20260505030506 39 312 4.0 10.0 0.00 0.08 0.08 79 1002.2
20260505030001 39 276 5.0 11.0 0.00 0.08 0.08 78 1001.9
20260505025458 39 300 6.0 17.0 0.00 0.08 0.08 77 1002.1
20260505024958 40 306 4.0 10.0 0.00 0.08 0.08 77 1001.8
20260505024454 40 268 12.0 22.0 0.00 0.08 0.08 75 1001.7